Weather History for Flag Island, MN

Change the Weather History Date:

Saturday, January 19, 2013

  Actual Average Record
Temperature  
Mean Temperature -2 °F -  
Max Temperature 10 °F 7 °F 33 °F (1997)
Min Temperature -14 °F -3 °F -25 °F (2012)
Degree Days  
Heating Degree Days 67    
Moisture  
Dew Point -5 °F    
Average Humidity 78    
Maximum Humidity 92    
Minimum Humidity 66    
Precipitation  
Precipitation 0.00 in - - ()
Sea Level Pressure  
Sea Level Pressure 29.95 in    
Wind  
Wind Speed 13 mph (NNW)    
Max Wind Speed 29 mph    
Max Gust Speed 34 mph    
Visibility 6 miles    
Events Snow    
Averages and records for this station are not official NWS values.
T = Trace of Precipitation, MM = Missing Value Source: NWS Daily Summary

Daily Weather History Graph

Daily Weather History Graph

Search for Another Location

Airport:

Trip Planner

Search our weather history database for the weather conditions in past years. The results will help you decide how hot, cold, wet, or windy it might be!

Date:

Astronomy

Jan. 19, 2013 Rise Set
Actual Time 8:05 AM CST 4:55 PM CST
Civil Twilight 7:30 AM CST 5:31 PM CST
Nautical Twilight 6:50 AM CST 6:10 PM CST
Astronomical Twilight 6:12 AM CST 6:48 PM CST
Moon 11:28 AM CST (1/19) 1:32 AM CST (1/19)
Length of Visible Light 10h 01m
Length of Day
8h 49m
First Quarter, 57% of the Moon is Illuminated
Jan 19
First Quarter
Jan 26
Full
Feb 3
Last Quarter
Feb 10
New
Feb 17
First Quarter

Hourly Weather History & Observations

Time (CST) Temp. Windchill Dew Point Humidity Pressure Visibility Wind Dir Wind Speed Gust Speed Precip Events Conditions
12:01 AM 8.6 °F 0.1 °F 5.0 °F 85% 29.69 in 10.0 mi ESE 4.6 mph - N/A   Mostly Cloudy
1:01 AM 8.6 °F 2.0 °F 5.0 °F 85% 29.67 in 2.5 mi East 3.5 mph - N/A   Overcast
1:21 AM 8.6 °F 2.0 °F 5.0 °F 85% 29.67 in 2.5 mi ESE 3.5 mph - N/A   Overcast
2:21 AM 8.6 °F 0.1 °F 6.8 °F 92% 29.66 in 1.8 mi ESE 4.6 mph - N/A   Overcast
3:01 AM 10.4 °F 0.8 °F 6.8 °F 85% 29.63 in 2.5 mi ESE 5.8 mph - N/A   Overcast
4:01 AM 10.4 °F - 6.8 °F 85% 29.60 in 0.8 mi East 2.3 mph - N/A   Overcast
4:37 AM 10.4 °F 4.0 °F 6.8 °F 85% 29.62 in 7.0 mi North 3.5 mph - N/A   Overcast
5:01 AM 10.4 °F 4.0 °F 6.8 °F 85% 29.59 in 4.0 mi ENE 3.5 mph - N/A   Overcast
5:41 AM 8.6 °F -2.6 °F 6.8 °F 92% 29.59 in 1.2 mi NNE 6.9 mph - N/A   Overcast
6:41 AM 8.6 °F -3.7 °F 5.0 °F 85% 29.61 in 3.0 mi North 8.1 mph - N/A   Overcast
7:41 AM 6.8 °F -8.6 °F 3.2 °F 85% 29.64 in 4.0 mi North 11.5 mph - N/A   Overcast
8:41 AM 3.2 °F -11.3 °F -0.4 °F 85% 29.65 in 10.0 mi NNW 9.2 mph - N/A   Mostly Cloudy
11:41 AM 1.4 °F -21.9 °F -4.0 °F 78% 29.77 in 7.0 mi NNW 24.2 mph - N/A   Overcast
12:41 PM 1.4 °F -19.9 °F -4.0 °F 78% 29.80 in 4.0 mi NNW 19.6 mph 25.3 mph N/A   Overcast
1:13 PM 3.2 °F -20.3 °F -4.0 °F 72% 29.83 in 2.0 mi North 26.5 mph 31.1 mph N/A   Haze
1:14 PM 1.4 °F -22.3 °F -5.8 °F 72% 29.83 in 2.0 mi North 25.3 mph 31.1 mph N/A   Haze
1:33 PM 3.2 °F -18.6 °F -2.2 °F 78% 29.84 in 1.5 mi North 21.9 mph 27.6 mph N/A Snow Light Snow
1:53 PM 3.2 °F -20.7 °F -5.8 °F 66% 29.86 in 1.8 mi North 27.6 mph 32.2 mph N/A Snow Light Snow
2:14 PM 3.2 °F -19.9 °F -4.0 °F 72% 29.88 in 2.5 mi North 25.3 mph 29.9 mph N/A   Haze
2:33 PM 3.2 °F -19.5 °F -5.8 °F 66% 29.89 in 2.5 mi North 24.2 mph 29.9 mph N/A Snow Light Snow
2:53 PM 3.2 °F -19.5 °F -4.0 °F 72% 29.91 in 2.5 mi North 24.2 mph 31.1 mph N/A Snow Light Snow
3:14 PM 3.2 °F -18.1 °F -4.0 °F 72% 29.94 in 7.0 mi North 20.7 mph 29.9 mph N/A   Scattered Clouds
3:34 PM 3.2 °F -20.3 °F -4.0 °F 72% 29.97 in 3.0 mi NNW 26.5 mph 32.2 mph N/A   Haze
3:53 PM 1.4 °F -23.5 °F -5.8 °F 72% 29.99 in 2.0 mi North 28.8 mph 34.5 mph N/A   Haze
4:14 PM 1.4 °F -22.3 °F -4.0 °F 78% 30.01 in 4.0 mi NNW 25.3 mph 31.1 mph N/A   Haze
4:34 PM 1.4 °F -21.4 °F -5.8 °F 72% 30.03 in 7.0 mi NNW 23.0 mph 28.8 mph N/A   Scattered Clouds
4:53 PM 1.4 °F -21.9 °F -5.8 °F 72% 30.05 in 7.0 mi NNW 24.2 mph 29.9 mph N/A   Clear
5:14 PM -0.4 °F -21.2 °F -7.6 °F 72% 30.07 in 5.0 mi NNW 17.3 mph - N/A   Haze
5:33 PM -0.4 °F -22.8 °F -7.6 °F 72% 30.09 in 10.0 mi NNW 20.7 mph - N/A   Clear
5:54 PM -0.4 °F -22.8 °F -7.6 °F 72% 30.10 in 10.0 mi NNW 20.7 mph - N/A   Clear
6:13 PM -2.2 °F -24.7 °F -7.6 °F 78% 30.11 in 10.0 mi NNW 19.6 mph - N/A   Clear
6:33 PM -2.2 °F -25.7 °F -7.6 °F 78% 30.12 in 10.0 mi NNW 21.9 mph - N/A   Clear
6:54 PM -2.2 °F -24.7 °F -9.4 °F 71% 30.13 in 10.0 mi NNW 19.6 mph - N/A   Clear
7:13 PM -4.0 °F -25.8 °F -9.4 °F 78% 30.15 in 10.0 mi NNW 17.3 mph - N/A   Clear
7:34 PM -4.0 °F -26.4 °F -9.4 °F 78% 30.15 in 10.0 mi NNW 18.4 mph - N/A   Clear
7:54 PM -5.8 °F -24.4 °F -9.4 °F 84% 30.17 in 10.0 mi NNW 11.5 mph - N/A   Clear
8:13 PM -5.8 °F -25.2 °F -11.2 °F 77% 30.18 in 7.0 mi WNW 12.7 mph - N/A   Scattered Clouds
8:54 PM -7.6 °F -28.3 °F -13.0 °F 77% 30.19 in 10.0 mi WNW 13.8 mph - N/A   Clear
9:13 PM -9.4 °F -30.6 °F -14.8 °F 77% 30.20 in 10.0 mi NW 13.8 mph - N/A   Clear
9:33 PM -9.4 °F -31.4 °F -14.8 °F 77% 30.20 in 10.0 mi NW 15.0 mph - N/A   Clear
9:54 PM -9.4 °F -29.8 °F -14.8 °F 77% 30.20 in 10.0 mi NW 12.7 mph - N/A   Clear
10:13 PM -11.2 °F -31.1 °F -16.6 °F 77% 30.21 in 10.0 mi NW 11.5 mph - N/A   Clear
10:33 PM -11.2 °F -32.1 °F -16.6 °F 77% 30.21 in 10.0 mi NW 12.7 mph - N/A   Clear
10:53 PM -11.2 °F -32.1 °F -16.6 °F 77% 30.21 in 10.0 mi NW 12.7 mph - N/A   Clear
11:13 PM -13.0 °F -35.2 °F -18.4 °F 77% 30.22 in 10.0 mi NW 13.8 mph - N/A   Clear
11:33 PM -14.8 °F -36.6 °F -18.4 °F 84% 30.22 in 10.0 mi NW 12.7 mph - N/A   Clear
11:54 PM -14.8 °F -36.6 °F -18.4 °F 84% 30.21 in 10.0 mi NW 12.7 mph - N/A   Clear